Change the Weather History Date:

Saturday, January 5, 2013

  Actual Average Record
Temperature  
Mean Temperature 72 °F 73 °F  
Max Temperature 81 °F 80 °F 85 °F (1990)
Min Temperature 62 °F 67 °F 57 °F (2015)
Degree Days  
Heating Degree Days 0 0  
Month to date heating degree days 0 0  
Since 1 July heating degree days 0 0  
Cooling Degree Days 7 8  
Month to date cooling degree days 28 42  
Year to date cooling degree days 28 42  
Growing Degree Days 22 (Base 50)    
Moisture  
Dew Point 67 °F    
Average Humidity 81    
Maximum Humidity 100    
Minimum Humidity 62    
Precipitation  
Precipitation 0.09 in 0.10 in 2.39 in (1943)
Month to date precipitation 0.14 0.47  
Year to date precipitation 0.14 0.47  
Snow  
Snow 0.00 in - - ()
Month to date snowfall 0.0  
Since 1 July snowfall 0.0  
Snow Depth 0.00 in    
Sea Level Pressure  
Sea Level Pressure 30.10 in    
Wind  
Wind Speed 22 mph (ENE)    
Max Wind Speed 33 mph    
Max Gust Speed 44 mph    
Visibility 10 miles    
Events Rain    
T = Trace of Precipitation, MM = Missing Value Source: NWS Daily Summary

Daily Weather History Graph

Daily Weather History Graph

Search for Another Location

Airport or City:

Trip Planner

Search our weather history database for the weather conditions in past years. The results will help you decide how hot, cold, wet, or windy it might be!

Date:

Astronomy

Jan. 05, 2013 Rise Set
Actual Time 7:10 AM HST 6:04 PM HST
Civil Twilight 6:46 AM HST 6:28 PM HST
Nautical Twilight 6:18 AM HST 6:55 PM HST
Astronomical Twilight 5:51 AM HST 7:23 PM HST
Moon 12:53 AM HST (1/5) 12:40 PM HST (1/5)
Length of Visible Light 11h 41m
Length of Day
10h 53m
Last Quarter, 42% of the Moon is Illuminated
Jan 5
Last Quarter
Jan 11
New
Jan 18
First Quarter
Jan 26
Full
Feb 3
Last Quarter

Hourly Weather History & Observations

Time (HST) Temp. Heat Index Dew Point Humidity Pressure Visibility Wind Dir Wind Speed Gust Speed Precip Events Conditions
12:53 AM 72.9 °F - 64.4 °F 75% 30.12 in 9.0 mi NE 20.7 mph 29.9 mph 0.00 in Rain Light Rain
1:53 AM 72.1 °F - 64.4 °F 77% 30.11 in 10.0 mi ENE 21.9 mph 28.8 mph 0.00 in   Mostly Cloudy
2:53 AM 69.1 °F - 66.9 °F 93% 30.09 in 10.0 mi ENE 29.9 mph 38.0 mph 0.00 in Rain Light Rain
3:53 AM 70.5 °F - 65.5 °F 84% 30.09 in 10.0 mi ENE 23.0 mph 35.7 mph 0.01 in Rain Light Rain
4:53 AM 68.2 °F - 67.1 °F 96% 30.09 in 7.0 mi ENE 25.3 mph 32.2 mph 0.05 in Rain Light Rain
5:04 AM 68.0 °F - 68.0 °F 100% 30.09 in 10.0 mi ENE 27.6 mph 34.5 mph 0.03 in Rain Light Rain
5:53 AM 70.2 °F - 66.9 °F 89% 30.10 in 10.0 mi ENE 21.9 mph 33.4 mph 0.03 in   Scattered Clouds
6:53 AM 71.1 °F - 64.8 °F 80% 30.10 in 10.0 mi ENE 18.4 mph 31.1 mph 0.00 in   Scattered Clouds
7:53 AM 71.1 °F - 66.2 °F 85% 30.12 in 10.0 mi ENE 17.3 mph 27.6 mph 0.00 in   Scattered Clouds
8:53 AM 73.9 °F - 64.9 °F 73% 30.14 in 10.0 mi ENE 21.9 mph 28.8 mph N/A   Scattered Clouds
9:53 AM 75.7 °F - 69.3 °F 80% 30.14 in 10.0 mi ENE 21.9 mph 32.2 mph 0.00 in   Scattered Clouds
10:53 AM 77.4 °F - 65.8 °F 67% 30.13 in 10.0 mi ENE 18.4 mph 34.5 mph N/A   Scattered Clouds
11:53 AM 75.9 °F - 70.0 °F 82% 30.12 in 10.0 mi ENE 16.1 mph 26.5 mph 0.00 in   Mostly Cloudy
12:53 PM 77.2 °F - 70.7 °F 80% 30.11 in 10.0 mi ENE 21.9 mph 31.1 mph 0.00 in   Mostly Cloudy
1:53 PM 78.1 °F - 71.2 °F 79% 30.06 in 10.0 mi ENE 25.3 mph 34.5 mph 0.00 in   Scattered Clouds
2:53 PM 77.9 °F - 71.4 °F 80% 30.06 in 7.0 mi East 15.0 mph - 0.00 in Rain Light Rain
3:53 PM 81.3 °F 83.5 °F 66.4 °F 60% 30.06 in 10.0 mi ENE 28.8 mph 41.4 mph 0.00 in   Mostly Cloudy
4:53 PM 78.8 °F - 67.1 °F 67% 30.06 in 10.0 mi NE 29.9 mph 35.7 mph 0.00 in   Mostly Cloudy
5:53 PM 74.7 °F - 64.9 °F 72% 30.07 in 10.0 mi NE 26.5 mph 36.8 mph 0.00 in   Scattered Clouds
6:53 PM 73.0 °F - 64.4 °F 74% 30.09 in 10.0 mi ENE 24.2 mph 29.9 mph N/A   Scattered Clouds
7:53 PM 71.6 °F - 66.6 °F 84% 30.12 in 10.0 mi East 17.3 mph 25.3 mph 0.00 in Rain Light Rain
8:53 PM 71.2 °F - 64.9 °F 80% 30.13 in 10.0 mi ENE 21.9 mph 33.4 mph 0.00 in   Mostly Cloudy
9:53 PM 72.3 °F - 67.5 °F 85% 30.14 in 10.0 mi East 20.7 mph 27.6 mph 0.00 in   Scattered Clouds
10:53 PM 72.0 °F - 64.2 °F 77% 30.13 in 10.0 mi ENE 18.4 mph 27.6 mph 0.00 in Rain Light Rain
11:53 PM 72.7 °F - 64.2 °F 75% 30.12 in 10.0 mi ENE 21.9 mph 34.5 mph 0.00 in   Scattered Clouds